weather.gov     
National Weather Service

Terminal Aerodrome Forecast
NWS Homepage
This page is being discontinued on March 12, 2014.
The same data is available at this site. Please update your bookmarks.
Thank you, and we apologize for the inconvenience.
Please send an email to SR-SRH.Webmaster@noaa.gov with any concerns.


Current Version
Previous Version:    01  02  03  04  05  06  07  08  09  10  11  12  13  14  15  16  17  18  19  20  21  22  23  24  25  26  27  28  29  
[Printable]
619
FTUS42 TJSJ 241700
TAFJBQ
TAF
TJBQ 241738Z 2418/2518 36008KT P6SM VCTS SCT022CB BKN040
      TEMPO 2418/2422 VRB12G20KT 4SM TSRA BKN022CB
     FM242300 12005KT P6SM FEW030 SCT080
     FM250300 00000KT P6SM SKC
     FM251400 09010KT P6SM FEW022 SCT040
      AMD NOT SKED 2502/2511=


U.S. Dept. of Commerce
NOAA National Weather Service
1325 East West Highway
Silver Spring, MD 20910
E-mail: w-nws.webmaster@noaa.gov
Page last modified: May 16, 2007
NATIONAL WEATHER SERVICE: for Safety, for Work, for Fun - FOR LIFE